BY70-2 (45857 NORAD) Tracking and Keplerian Element Data

This shows tracking and keplerian element data for the satellite.

Feedback or suggestion? Click here.




ElementValue
Catalog45857
NameBY70-2
Epoch Orbit12864
Epoch Day325.13082258
Epoch Year2022
RAAN40.6054
Inclination97.9449
Eccentricity0.0009092
Argument of Perigee332.2634
Mean Anonmoly27.7883
Mean Motion14.82140353
Decay Rate7.568E-05
L11 45857U 20042B 22325.13082258 .00007568 00000+0 95601-3 0 9999
L22 45857 97.9449 40.6054 0009092 332.2634 27.7883 14.82140353128642



Live tracking and technical data element details for BY70-2 (NORAD 45857). BY70-2 can be tracked NOW for your location showing map with azimuth and elevation plus other details from your city location.







IsCatalogInMostPopularTable: catalog: 45857, numindb: 196
Update: records affected: 1



GetName: 45857 BY70-2

Hit Count: updated at: Mon, 28 Nov 2022 04:12:29 GMT